COSMOS 1110

Satellite information

Favourite Embed

Satellite Type and Status

PAYLOADIN ORBIT

Key statistics

Satellite COSMOS 1110 at a glance.

Uptime

16865

Days in orbit

Revolutions

≈ 14.3

Per day

Orbit

LEO

Low Earth Orbit

Inclination

74.0

Latest

Satellite identification and parameters

Extended collection of information and parameters for COSMOS 1110.

Object identification

Identified? True

Debris? False

Object name: COSMOS 1110

International designator: 1979-060A

Object number (NORAD): 11425

Object ID (CCSDS): 11425

Country: COMMONWEALTH OF INDEPENDENT STATES (CIS)

Current information (Y/N): Y

RCS size: LARGE

Orbital parameters

Period: 100.411 minutes

Inclination: 74.0128 deg

SMA: 7156.164 km

Apoapsis: 788.281 km

Periapsis: 767.777 km

RAAN: 64.0738 deg

Eccentricy: 0.00143259

Argument of periapsis: 201.6119 deg

Mean anomaly: 158.443 deg

Mean motion: 14.34109614 rev/day

Mean motion (dot): 0.00000183 rev/day2

B* drag term: 0.000074563877 1/REarth

Two-line elements (TLE)

Creation date: Aug. 29, 2025, 2:15 a.m.

Reference frame: TEME

Reference center: EARTH

Epoch: Aug. 28, 2025, 10:09 p.m. UTC

TLE line 0: 0 COSMOS 1110

TLE line 1: 1 11425U 79060A 25240.92295819 .00000183 00000-0 74564-4 0 9995

TLE line 2: 2 11425 74.0128 64.0738 0014326 201.6119 158.4430 14.34109614412488

Live tracking on map

Real-time ground track for satellite COSMOS 1110.

In-orbit conjunctions

A list of the most updated potential collisions computed for object COSMOS 1110.

Target Orbit TCA Probability of collision Miss distance Type
IRIDIUM 63 LEO 2025-06-29 16:52:40 0.0001229858 445.0 (m) PAYLOAD
CZ-6A DEB SSO 2025-06-29 14:58:36 0.0002019052 470.0 (m) DEBRIS
CZ-6A DEB SSO 2025-03-31 18:14:59 0.0001980972 87.0 (m) DEBRIS
FENGYUN 1C DEB SSO 2025-03-26 13:24:07 0.0002446534 203.0 (m) DEBRIS
COSMOS 1275 DEB LEO 2025-02-15 14:11:08 0.0001704883 394.0 (m) DEBRIS

Associated space launch

Military communications satellite

COSMOS 1110 was lifted into orbit during the mission ‘Kosmos-3M | Strela-2M 20’, on board a Kosmos-3M space rocket.

The launch took place on June 28, 1979, 8:09 p.m. from 132/1 (132L).

For more information about the launch, click the button.

Launch to space Kosmos-3M | Strela-2M 20
Kosmos-3M | Strela-2M 20

Agency: N/A

Status: Launch Successful

Launch date: June 28, 1979, 8:09 p.m. UTC

Rocket: Kosmos-3M

Launch pad: 132/1 (132L)

Location: Plesetsk Cosmodrome, Russian Federation

...

Latest news about this satellite

There are no fresh news available about this satellite. Check back as we update our databases every day.


Newsletter sign-up

Weekly statistics, charts and insights to help you stay on top of the space industry.